This demonstration page uses our WeatherBlox Daily Observations layout. Learn more.

Left ArrowRight Arrow

Hourly Observations for September 7, 2015

Temp ( °F °C ) Dew Point ( °F °C ) Humidity (%) Winds ( mph kmh ) Pressure ( in mb ) Visibility ( mi km ) Precip ( " mm )
12:53 am 00:53 Clear 64 17.8 29 -1.7 27 27 Calm 29.92 1013 10 16 0.00 0.00
1:53 am 01:53 Clear 65 18.3 32 0 29 29 NNW 6 9 29.92 1013 10 16 0.00 0.00
2:53 am 02:53 Clear 63 17.2 33 0.6 33 33 NNW 3 6 29.92 1013 10 16 0.00 0.00
3:53 am 03:53 Clear 61 16.1 33 0.6 35 35 N 5 7 29.92 1013 10 16 0.00 0.00
4:53 am 04:53 Clear 59 15 32 0 36 36 Calm 29.93 1013 10 16 0.00 0.00
5:53 am 05:53 Clear 58 14.4 32 0 38 38 Calm 29.93 1014 10 16 0.00 0.00
6:53 am 06:53 Sunny 67 19.4 40 4.4 37 37 NW 6 9 29.93 1014 10 16 0.00 0.00
7:53 am 07:53 Sunny 71 21.7 42 5.6 35 35 NNW 6 9 29.94 1014 10 16 0.00 0.00
8:53 am 08:53 Sunny 79 26.1 39 3.9 24 24 N 9 15 29.94 1014 10 16 0.00 0.00
9:53 am 09:53 Sunny 82 27.8 38 3.3 21 21 N 13 20 29.93 1014 10 16 0.00 0.00
10:53 am 10:53 Sunny 87 30.6 38 3.3 18 18 N 9 15 29.93 1014 10 16 0.00 0.00
11:53 am 11:53 Sunny 91 32.8 38 3.3 15 15 N 7 11 29.91 1013 10 16 0.00 0.00
12:53 pm 12:53 Sunny 93 33.9 34 1.1 12 12 Calm 29.88 1012 10 16 0.00 0.00
1:53 pm 13:53 Sunny 96 35.6 31 -0.6 10 10 WSW 10 17 29.86 1011 10 16 0.00 0.00
2:53 pm 14:53 Sunny 96 35.6 26 -3.3 8 8 VRB 3 6 29.85 1011 10 16 0.00 0.00
3:53 pm 15:53 Sunny 98 36.7 23 -5 7 7 SE 6 9 29.83 1010 10 16 0.00 0.00
4:53 pm 16:53 Sunny 98 36.7 23 -5 7 7 SW 5 7 29.81 1009 10 16 0.00 0.00
5:53 pm 17:53 Sunny 98 36.7 25 -3.9 7 7 S 8 13 29.80 1009 10 16 0.00 0.00
6:53 pm 18:53 Sunny 94 34.4 31 -0.6 11 11 S 7 11 29.80 1009 10 16 0.00 0.00
7:53 pm 19:53 Clear 90 32.2 32 0 13 13 SSW 7 11 29.81 1009 10 16 0.00 0.00
8:53 pm 20:53 Clear 82 27.8 33 0.6 17 17 ENE 3 6 29.83 1010 10 16 0.00 0.00
9:53 pm 21:53 Clear 77 25 33 0.6 20 20 NNE 3 6 29.87 1011 10 16 0.00 0.00
10:53 pm 22:53 Clear 76 24.4 31 -0.6 19 19 Calm 29.87 1012 10 16 0.00 0.00
11:53 pm 23:53 Clear 74 23.3 32 0 21 21 VRB 3 6 29.89 1012 10 16 0.00 0.00

Powered by AerisWeather